TimeEST,TemperatureF,Dew PointF,Humidity,Sea Level PressureIn,VisibilityMPH,Wind Direction,Wind SpeedMPH,Gust SpeedMPH,PrecipitationIn,Events,Conditions,WindDirDegrees,DateUTC
12:15 AM,32.0,29.8,92,30.08,10.0,Calm,Calm,-,N/A,,Unknown,0,2013-03-06 05:15:00
12:35 AM,32.0,29.7,91,30.08,10.0,Calm,Calm,-,N/A,,Unknown,0,2013-03-06 05:35:00
12:55 AM,32.0,29.8,92,30.08,10.0,Calm,Calm,-,N/A,,Unknown,0,2013-03-06 05:55:00
1:15 AM,32.7,30.4,91,30.09,10.0,Calm,Calm,-,N/A,,Unknown,0,2013-03-06 06:15:00
1:35 AM,33.8,31.8,92,30.09,10.0,Calm,Calm,-,N/A,,Unknown,0,2013-03-06 06:35:00
2:15 AM,35.1,30.9,85,30.09,10.0,ESE,4.6,-,N/A,,Unknown,120,2013-03-06 07:15:00
2:35 AM,35.6,30.6,82,30.09,10.0,East,4.6,-,N/A,,Unknown,90,2013-03-06 07:35:00
2:55 AM,35.2,30.6,83,30.09,10.0,Calm,Calm,-,N/A,,Unknown,0,2013-03-06 07:55:00
3:15 AM,34.7,30.6,85,30.09,10.0,Calm,Calm,-,N/A,,Unknown,0,2013-03-06 08:15:00
3:35 AM,35.1,30.0,82,30.09,10.0,ESE,3.5,-,N/A,,Unknown,110,2013-03-06 08:35:00
3:55 AM,35.6,29.3,78,30.08,10.0,East,8.1,-,N/A,,Unknown,90,2013-03-06 08:55:00
4:15 AM,35.8,29.7,78,30.09,10.0,East,6.9,-,N/A,,Unknown,90,2013-03-06 09:15:00
4:35 AM,35.6,29.8,80,30.10,10.0,East,5.8,-,N/A,,Unknown,100,2013-03-06 09:35:00
4:55 AM,35.6,30.2,81,30.10,10.0,East,13.8,18.4,N/A,,Unknown,90,2013-03-06 09:55:00
5:15 AM,35.6,30.2,81,30.10,10.0,East,9.2,18.4,N/A,Rain,Light Rain,100,2013-03-06 10:15:00
5:35 AM,35.4,30.2,81,30.11,10.0,ESE,12.7,18.4,N/A,,Unknown,110,2013-03-06 10:35:00
5:55 AM,35.6,29.8,80,30.11,10.0,East,9.2,20.7,N/A,,Light Drizzle,100,2013-03-06 10:55:00
6:15 AM,35.2,30.0,81,30.11,10.0,East,8.1,-,N/A,,Unknown,100,2013-03-06 11:15:00
6:35 AM,35.4,30.0,81,30.12,10.0,East,8.1,16.1,N/A,,Unknown,90,2013-03-06 11:35:00
6:55 AM,35.1,30.0,82,30.12,10.0,East,9.2,-,N/A,,Unknown,100,2013-03-06 11:55:00
7:15 AM,35.2,30.0,81,30.14,10.0,East,11.5,-,N/A,Snow,Light Snow,80,2013-03-06 12:15:00
7:35 AM,34.3,30.7,87,30.15,4.0,ESE,8.1,17.3,N/A,Snow,Light Snow,110,2013-03-06 12:35:00
8:15 AM,34.7,29.8,82,30.16,7.0,East,12.7,18.4,N/A,Rain,Light Rain,90,2013-03-06 13:15:00
8:35 AM,34.9,29.3,80,30.17,10.0,East,13.8,20.7,N/A,,Light Drizzle,90,2013-03-06 13:35:00
9:15 AM,34.7,29.1,80,30.17,10.0,East,10.4,17.3,N/A,,Light Drizzle,90,2013-03-06 14:15:00
9:35 AM,34.7,29.1,80,30.18,5.0,East,12.7,17.3,N/A,Snow,Light Snow,90,2013-03-06 14:35:00
9:55 AM,34.3,30.0,84,30.18,4.0,East,6.9,-,N/A,Snow,Light Snow,100,2013-03-06 14:55:00
10:15 AM,35.6,28.2,75,30.17,10.0,East,18.4,25.3,N/A,,Unknown,80,2013-03-06 15:15:00
10:35 AM,35.6,26.6,70,30.17,10.0,East,11.5,24.2,N/A,,Unknown,90,2013-03-06 15:35:00
10:55 AM,35.6,27.1,71,30.17,7.0,East,15.0,21.9,N/A,,Unknown,90,2013-03-06 15:55:00
11:15 AM,35.6,27.3,72,30.17,10.0,East,10.4,-,N/A,,Unknown,90,2013-03-06 16:15:00
11:35 AM,35.1,26.6,71,30.18,10.0,East,9.2,21.9,N/A,,Unknown,90,2013-03-06 16:35:00
12:15 PM,35.6,25.0,65,30.17,10.0,ENE,11.5,18.4,N/A,,Unknown,70,2013-03-06 17:15:00
12:35 PM,36.5,24.6,62,30.15,10.0,East,13.8,18.4,N/A,,Unknown,80,2013-03-06 17:35:00
12:55 PM,36.9,24.6,61,30.14,10.0,ENE,11.5,23.0,N/A,,Unknown,60,2013-03-06 17:55:00
1:15 PM,35.8,25.7,67,30.14,7.0,East,15.0,26.5,N/A,Snow,Light Snow,80,2013-03-06 18:15:00
1:35 PM,36.0,26.6,69,30.15,7.0,East,15.0,20.7,N/A,,Unknown,90,2013-03-06 18:35:00
1:55 PM,36.0,27.1,70,30.14,10.0,East,12.7,17.3,N/A,,Unknown,80,2013-03-06 18:55:00
2:15 PM,36.5,27.1,69,30.14,10.0,East,8.1,17.3,N/A,Snow,Light Snow,80,2013-03-06 19:15:00
2:35 PM,36.5,27.1,69,30.14,7.0,ENE,16.1,20.7,N/A,Snow,Light Snow,70,2013-03-06 19:35:00
2:55 PM,36.5,27.5,70,30.15,10.0,East,10.4,17.3,N/A,Snow,Light Snow,90,2013-03-06 19:55:00
3:15 PM,35.4,29.8,80,30.15,3.0,East,6.9,-,N/A,Snow,Light Snow,100,2013-03-06 20:15:00
3:35 PM,33.4,30.7,90,30.17,0.8,East,10.4,26.5,N/A,Snow,Light Snow,90,2013-03-06 20:35:00
4:15 PM,34.9,28.8,78,30.16,7.0,ENE,6.9,16.1,N/A,Snow,Light Snow,60,2013-03-06 21:15:00
4:35 PM,34.7,28.8,79,30.16,10.0,East,6.9,-,N/A,Snow,Light Snow,80,2013-03-06 21:35:00
4:55 PM,34.9,28.0,76,30.17,7.0,ENE,6.9,-,N/A,Snow,Light Snow,70,2013-03-06 21:55:00
5:15 PM,34.0,28.8,81,30.17,2.5,East,12.7,-,N/A,Snow,Light Snow,90,2013-03-06 22:15:00
5:35 PM,32.9,29.3,87,30.18,1.5,East,8.1,17.3,N/A,Snow,Light Snow,100,2013-03-06 22:35:00
5:55 PM,33.1,29.1,85,30.19,10.0,East,4.6,-,N/A,Snow,Light Snow,100,2013-03-06 22:55:00
6:15 PM,33.4,28.4,82,30.19,5.0,ENE,11.5,16.1,N/A,Snow,Light Snow,70,2013-03-06 23:15:00
6:35 PM,33.4,28.4,82,30.19,10.0,ENE,5.8,-,N/A,,Unknown,70,2013-03-06 23:35:00
6:55 PM,34.0,26.2,73,30.20,10.0,East,9.2,-,N/A,,Unknown,90,2013-03-06 23:55:00
7:15 PM,34.0,24.3,68,30.20,10.0,East,12.7,21.9,N/A,,Unknown,80,2013-03-07 00:15:00
7:35 PM,33.8,24.3,68,30.20,10.0,ENE,11.5,17.3,N/A,,Unknown,70,2013-03-07 00:35:00
7:55 PM,33.8,25.3,71,30.20,10.0,ENE,8.1,-,N/A,,Unknown,60,2013-03-07 00:55:00
8:15 PM,33.4,25.5,73,30.19,10.0,ENE,12.7,20.7,N/A,Snow,Light Snow,70,2013-03-07 01:15:00
8:35 PM,33.1,25.3,73,30.19,10.0,East,9.2,16.1,N/A,,Unknown,80,2013-03-07 01:35:00
8:55 PM,32.5,24.6,73,30.19,10.0,East,3.5,-,N/A,,Unknown,80,2013-03-07 01:55:00
9:15 PM,33.1,24.1,70,30.18,10.0,East,5.8,-,N/A,,Unknown,90,2013-03-07 02:15:00
9:35 PM,32.9,24.3,71,30.18,10.0,East,5.8,-,N/A,,Unknown,100,2013-03-07 02:35:00
9:55 PM,33.1,23.4,67,30.17,10.0,East,5.8,-,N/A,,Unknown,90,2013-03-07 02:55:00
10:15 PM,33.1,23.0,66,30.17,10.0,East,6.9,-,N/A,,Unknown,100,2013-03-07 03:15:00
10:35 PM,32.9,23.7,69,30.17,10.0,East,3.5,-,N/A,,Unknown,100,2013-03-07 03:35:00
10:55 PM,33.1,23.0,66,30.17,10.0,East,5.8,-,N/A,,Unknown,80,2013-03-07 03:55:00
11:15 PM,32.9,22.8,66,30.17,10.0,East,6.9,-,N/A,,Unknown,80,2013-03-07 04:15:00
11:35 PM,32.9,22.8,66,30.16,10.0,ENE,10.4,-,N/A,,Unknown,70,2013-03-07 04:35:00
11:55 PM,32.5,23.2,68,30.16,10.0,ENE,10.4,18.4,N/A,,Unknown,70,2013-03-07 04:55:00